Ellensburg, WA

2:41 PM PDT on September 21, 2017 (GMT -0700)
Bowers

Weather History for KELN - April, 2013

Change the Weather History Date:

Wednesday, April 24, 2013

  Actual Average (KYKM) Record (KYKM)
Temperature  
Mean Temperature 51 °F -  
Max Temperature 72 °F 63 °F 92 °F (1977)
Min Temperature 30 °F 36 °F 24 °F (1986)
Degree Days  
Heating Degree Days 14    
Growing Degree Days 1 (Base 50)    
Moisture  
Dew Point 27 °F    
Average Humidity 42    
Maximum Humidity 75    
Minimum Humidity 20    
Precipitation  
Precipitation 0.00 in - - ()
Sea Level Pressure  
Sea Level Pressure 30.18 in    
Wind  
Wind Speed 5 mph (NW)    
Max Wind Speed 24 mph    
Max Gust Speed 33 mph    
Visibility 10 miles    
Events      
Averages and records for this station are not official NWS values.
T = Trace of Precipitation, MM = Missing Value Source: NWS Daily Summary

Daily Weather History Graph

Daily Weather History Graph

Search for Another Location

Airport or City:

Trip Planner

Search our weather history database for the weather conditions in past years. The results will help you decide how hot, cold, wet, or windy it might be!

Date:

Astronomy

Apr. 24, 2013 Rise Set
Actual Time 5:57 AM PDT 8:03 PM PDT
Civil Twilight 5:24 AM PDT 8:36 PM PDT
Nautical Twilight 4:43 AM PDT 9:17 PM PDT
Astronomical Twilight 3:58 AM PDT 10:03 PM PDT
Moon 7:11 PM PDT (4/24) 5:08 AM PDT (4/24)
Length of Visible Light 15h 12m
Length of Day
14h 06m
Waxing Gibbous, 98% of the Moon is Illuminated
Apr 24
Waxing Gibbous
Apr 25
Full
May 2
Last Quarter
May 9
New
May 17
First Quarter

Hourly Weather History & Observations

Time (PDT) Temp. Windchill Dew Point Humidity Pressure Visibility Wind Dir Wind Speed Gust Speed Precip Events Conditions
12:53 AM 36.0 °F 32.1 °F 25.0 °F 64% 30.31 in 10.0 mi NNE 4.6 mph - N/A   Clear
1:53 AM 35.1 °F 31.0 °F 24.1 °F 64% 30.31 in 10.0 mi East 4.6 mph - N/A   Clear
3:53 AM 33.1 °F - 23.0 °F 66% 30.32 in 10.0 mi Calm Calm - N/A   Clear
4:53 AM 30.9 °F 25.2 °F 23.0 °F 72% 30.33 in 10.0 mi Variable 5.8 mph 25.3 mph N/A   Clear
5:53 AM 30.9 °F - 23.0 °F 72% 30.33 in 10.0 mi Calm Calm - N/A   Clear
6:53 AM 32.0 °F - 25.0 °F 75% 30.34 in 10.0 mi Calm Calm - N/A   Clear
7:53 AM 39.9 °F - 28.0 °F 63% 30.32 in 10.0 mi Calm Calm - N/A   Clear
8:53 AM 45.0 °F - 30.0 °F 56% 30.33 in 10.0 mi Calm Calm - N/A   Clear
9:53 AM 50.0 °F - 32.0 °F 50% 30.30 in 10.0 mi Calm Calm - N/A   Clear
10:53 AM 55.9 °F - 33.1 °F 42% 30.27 in 10.0 mi Variable 3.5 mph - N/A   Clear
11:53 AM 62.1 °F - 32.0 °F 32% 30.24 in 10.0 mi Variable 5.8 mph - N/A   Clear
12:53 PM 66.0 °F - 30.9 °F 27% 30.20 in 10.0 mi Variable 5.8 mph - N/A   Clear
1:53 PM 66.9 °F - 30.9 °F 26% 30.17 in 10.0 mi Variable 3.5 mph - N/A   Clear
2:53 PM 68.0 °F - 30.9 °F 25% 30.13 in 10.0 mi Calm Calm - N/A   Clear
3:53 PM 70.0 °F - 28.9 °F 22% 30.09 in 10.0 mi Calm Calm - N/A   Clear
4:53 PM 72.0 °F - 28.9 °F 20% 30.05 in 10.0 mi WNW 13.8 mph 20.7 mph N/A   Clear
5:53 PM 69.1 °F - 27.0 °F 21% 30.03 in 10.0 mi NW 23.0 mph 28.8 mph N/A   Clear
6:53 PM 64.0 °F - 26.1 °F 24% 30.02 in 10.0 mi NW 16.1 mph 24.2 mph N/A   Clear
7:53 PM 62.1 °F - 21.0 °F 21% 30.01 in 10.0 mi WNW 24.2 mph 33.4 mph N/A   Clear
8:53 PM 55.0 °F - 19.9 °F 25% 30.03 in 10.0 mi West 8.1 mph - N/A   Clear
9:53 PM 54.0 °F - 21.0 °F 28% 30.01 in 10.0 mi WNW 4.6 mph - N/A   Clear
10:53 PM 53.1 °F - 23.0 °F 31% 29.99 in 10.0 mi NNW 9.2 mph - N/A   Clear
11:53 PM 53.1 °F - 23.0 °F 31% 29.97 in 10.0 mi NW 20.7 mph - N/A   Clear